Location: Assche-ter-Heiden
(50.9174°N, 4.1574°E)
Time: 16:42:56
(UTC+00:00)

NOAA 6 - Pass Details

Date: 20 January 2020
Orbit: 773 x 786 km, 98.7° (Epoch: 19 February)

Event Time Altitude Azimuth Distance (km) Brightness Sun altitude
Rises 05:50:36 0° 13° (NNE) 3,289 7.3 -16.1°
Reaches altitude 10° 05:52:55 10° 12° (NNE) 2,357 6.5 -15.8°
Maximum altitude 05:58:07 74° 289° (WNW) 822 4.0 -15.0°
Drops below altitude 10° 06:03:16 10° 205° (SSW) 2,343 6.4 -14.2°
Sets 06:05:35 0° 203° (SSW) 3,268 7.2 -13.8°
